NJE521 EGPF-EGPL

Flight info

Callsign NJE521
Flight time 0h 35m
Altitude 24000
Route CLYDE Q602 BRUCE Y958 TOBMO DCT BEN
Aircraft B738/M-SDE2E3FGHIRWXY/LB1

Departure

Time 2026-04-25 16:06
Airport Glasgow Airport (EGPF)

Arrival

Time 2026-04-25 16:41
Airport Benbecula Airport (EGPL)
Time Latitude Longitude Altitude Speed Heading
2026-04-25 15:37 55.86619 -4.42816 28 ft 0 kts 74°
2026-04-25 15:55 55.86615 -4.42841 28 ft 4 kts 66°
2026-04-25 15:55 55.86601 -4.42878 28 ft 4 kts 29°
2026-04-25 15:55 55.86581 -4.42885 28 ft 1 kts 343°
2026-04-25 15:56 55.86580 -4.42885 28 ft 0 kts 343°
2026-04-25 15:59 55.86583 -4.42887 28 ft 2 kts 343°
2026-04-25 15:59 55.86608 -4.42901 28 ft 6 kts 342°
2026-04-25 15:59 55.86655 -4.42925 28 ft 7 kts 344°
2026-04-25 15:59 55.86703 -4.42949 28 ft 7 kts 345°
2026-04-25 16:00 55.86751 -4.42973 28 ft 8 kts 343°
2026-04-25 16:00 55.86840 -4.43068 28 ft 8 kts 270°
2026-04-25 16:00 55.86826 -4.43163 28 ft 8 kts 253°
2026-04-25 16:01 55.86810 -4.43264 28 ft 9 kts 254°
2026-04-25 16:01 55.86790 -4.43388 28 ft 11 kts 253°
2026-04-25 16:01 55.86766 -4.43533 28 ft 13 kts 253°
2026-04-25 16:01 55.86738 -4.43700 28 ft 14 kts 253°
2026-04-25 16:02 55.86684 -4.43843 28 ft 14 kts 226°
2026-04-25 16:02 55.86619 -4.43964 28 ft 13 kts 226°
2026-04-25 16:02 55.86557 -4.44081 28 ft 13 kts 227°
2026-04-25 16:02 55.86498 -4.44196 28 ft 12 kts 226°
2026-04-25 16:03 55.86438 -4.44305 28 ft 12 kts 225°
2026-04-25 16:03 55.86380 -4.44411 28 ft 12 kts 226°
2026-04-25 16:03 55.86325 -4.44517 28 ft 12 kts 227°
2026-04-25 16:03 55.86272 -4.44619 28 ft 9 kts 226°
2026-04-25 16:04 55.86251 -4.44701 28 ft 8 kts 285°
2026-04-25 16:04 55.86285 -4.44769 28 ft 7 kts 318°
2026-04-25 16:04 55.86321 -4.44828 28 ft 7 kts 317°
2026-04-25 16:04 55.86360 -4.44875 28 ft 6 kts 355°
2026-04-25 16:05 55.86392 -4.44830 28 ft 6 kts 47°
2026-04-25 16:05 55.86445 -4.44730 28 ft 32 kts 46°
2026-04-25 16:05 55.87470 -4.42829 265 ft 154 kts 48°
2026-04-25 16:06 55.88193 -4.41501 1243 ft 150 kts 48°
2026-04-25 16:06 55.88938 -4.40133 2039 ft 161 kts 48°
2026-04-25 16:06 55.89801 -4.38506 2363 ft 198 kts 48°
2026-04-25 16:06 55.90819 -4.36532 2634 ft 235 kts 49°
2026-04-25 16:07 55.91985 -4.34242 3126 ft 259 kts 49°
2026-04-25 16:07 55.92396 -4.33430 3407 ft 263 kts 49°
2026-04-25 16:07 55.94583 -4.29552 5000 ft 271 kts 27°
2026-04-25 16:07 55.96404 -4.28856 5824 ft 272 kts 354°
2026-04-25 16:08 55.98116 -4.29990 6168 ft 269 kts 320°
2026-04-25 16:08 55.99193 -4.32645 6207 ft 269 kts 286°
2026-04-25 16:08 55.99218 -4.35940 6220 ft 268 kts 254°
2026-04-25 16:08 55.98742 -4.39130 6217 ft 266 kts 257°
2026-04-25 16:09 55.98282 -4.42336 6215 ft 265 kts 255°
2026-04-25 16:09 55.97811 -4.45515 6221 ft 265 kts 255°
2026-04-25 16:09 55.97353 -4.48701 6207 ft 265 kts 256°
2026-04-25 16:09 55.96914 -4.51902 6217 ft 266 kts 256°
2026-04-25 16:10 55.96546 -4.55139 6206 ft 267 kts 264°
2026-04-25 16:10 55.96487 -4.58459 6215 ft 268 kts 269°
2026-04-25 16:10 55.96497 -4.61791 6199 ft 269 kts 269°
2026-04-25 16:10 55.96498 -4.65081 6212 ft 269 kts 268°
2026-04-25 16:11 55.96476 -4.68423 6216 ft 270 kts 268°
2026-04-25 16:11 55.96441 -4.71777 6204 ft 270 kts 267°
2026-04-25 16:11 55.96398 -4.75130 6202 ft 270 kts 268°
2026-04-25 16:11 55.96384 -4.78470 6190 ft 270 kts 274°
2026-04-25 16:12 55.96953 -4.81672 6307 ft 275 kts 294°
2026-04-25 16:12 55.97781 -4.84760 7210 ft 276 kts 294°
2026-04-25 16:12 55.98613 -4.87850 8334 ft 277 kts 294°
2026-04-25 16:12 55.98894 -4.88896 8698 ft 278 kts 294°
2026-04-25 16:13 56.00303 -4.94153 10394 ft 286 kts 294°
2026-04-25 16:13 56.01188 -4.97485 10943 ft 310 kts 293°
2026-04-25 16:13 56.02148 -5.01118 11365 ft 332 kts 294°
2026-04-25 16:13 56.03149 -5.04906 12220 ft 339 kts 294°
2026-04-25 16:14 56.04161 -5.08747 13219 ft 344 kts 293°
2026-04-25 16:14 56.05186 -5.12650 14208 ft 350 kts 292°
2026-04-25 16:14 56.06230 -5.16628 15105 ft 355 kts 292°
2026-04-25 16:14 56.07285 -5.20649 16105 ft 359 kts 292°
2026-04-25 16:15 56.08351 -5.24715 17106 ft 362 kts 292°
2026-04-25 16:15 56.09424 -5.28823 18082 ft 367 kts 292°
2026-04-25 16:15 56.10508 -5.32987 18957 ft 372 kts 292°
2026-04-25 16:15 56.11608 -5.37222 19768 ft 377 kts 292°
2026-04-25 16:16 56.12721 -5.41517 20547 ft 383 kts 292°
2026-04-25 16:16 56.13836 -5.45830 21321 ft 389 kts 292°
2026-04-25 16:16 56.14982 -5.50269 22101 ft 395 kts 292°
2026-04-25 16:16 56.16143 -5.54774 22912 ft 399 kts 292°
2026-04-25 16:17 56.17307 -5.59303 23793 ft 401 kts 292°
2026-04-25 16:17 56.18473 -5.63845 24096 ft 400 kts 292°
2026-04-25 16:17 56.19636 -5.68384 24178 ft 401 kts 292°
2026-04-25 16:17 56.20800 -5.72932 24202 ft 400 kts 292°
2026-04-25 16:18 56.21959 -5.77470 24202 ft 399 kts 292°
2026-04-25 16:18 56.22366 -5.78985 24197 ft 399 kts 295°
2026-04-25 16:18 56.25158 -5.85608 24198 ft 404 kts 314°
2026-04-25 16:18 56.27361 -5.88765 24194 ft 406 kts 324°
2026-04-25 16:19 56.29716 -5.91565 24193 ft 406 kts 326°
2026-04-25 16:19 56.32100 -5.94311 24191 ft 407 kts 326°
2026-04-25 16:19 56.34488 -5.97057 24190 ft 407 kts 326°
2026-04-25 16:20 56.39219 -6.02577 24185 ft 408 kts 325°
2026-04-25 16:20 56.41593 -6.05388 24193 ft 408 kts 325°
2026-04-25 16:20 56.46332 -6.11037 24182 ft 409 kts 325°
2026-04-25 16:21 56.48702 -6.13883 24189 ft 409 kts 325°
2026-04-25 16:21 56.51079 -6.16741 24188 ft 409 kts 325°
2026-04-25 16:21 56.53450 -6.19592 24189 ft 410 kts 325°
2026-04-25 16:21 56.55827 -6.22452 24185 ft 410 kts 325°
2026-04-25 16:22 56.58207 -6.25318 24180 ft 410 kts 325°
2026-04-25 16:22 56.60585 -6.28185 24184 ft 410 kts 325°
2026-04-25 16:22 56.62956 -6.31048 24190 ft 409 kts 324°
2026-04-25 16:22 56.65325 -6.33914 24190 ft 409 kts 324°
2026-04-25 16:23 56.67692 -6.36781 24192 ft 409 kts 324°
2026-04-25 16:23 56.70057 -6.39652 24186 ft 409 kts 325°
2026-04-25 16:23 56.71625 -6.41557 24178 ft 409 kts 325°
2026-04-25 16:23 56.74808 -6.45421 23639 ft 409 kts 325°
2026-04-25 16:24 56.76370 -6.47322 23247 ft 409 kts 325°
2026-04-25 16:24 56.78726 -6.50196 22744 ft 403 kts 324°
2026-04-25 16:24 56.81781 -6.53935 21998 ft 396 kts 324°
2026-04-25 16:24 56.83321 -6.55819 21611 ft 394 kts 324°
2026-04-25 16:25 56.85584 -6.58587 21060 ft 390 kts 324°
2026-04-25 16:25 56.87073 -6.60410 20692 ft 387 kts 324°
2026-04-25 16:25 56.90046 -6.64060 19961 ft 382 kts 324°
2026-04-25 16:25 56.92244 -6.66771 19419 ft 379 kts 324°
2026-04-25 16:26 56.94423 -6.69465 18880 ft 376 kts 324°
2026-04-25 16:26 56.96557 -6.72105 18324 ft 374 kts 324°
2026-04-25 16:26 56.98708 -6.74769 17709 ft 371 kts 324°
2026-04-25 16:26 57.00843 -6.77415 17131 ft 368 kts 324°
2026-04-25 16:27 57.02954 -6.80033 16580 ft 364 kts 324°
2026-04-25 16:27 57.05044 -6.82629 16036 ft 361 kts 324°
2026-04-25 16:27 57.07111 -6.85199 15529 ft 357 kts 324°
2026-04-25 16:27 57.09162 -6.87754 14984 ft 355 kts 324°
2026-04-25 16:28 57.11199 -6.90294 14450 ft 353 kts 324°
2026-04-25 16:28 57.13225 -6.92825 13905 ft 351 kts 324°
2026-04-25 16:28 57.15240 -6.95345 13188 ft 351 kts 324°
2026-04-25 16:28 57.17265 -6.97881 12574 ft 350 kts 324°
2026-04-25 16:29 57.19270 -7.00395 12004 ft 347 kts 324°
2026-04-25 16:29 57.21256 -7.02888 11458 ft 343 kts 324°
2026-04-25 16:29 57.23212 -7.05346 10914 ft 335 kts 324°
2026-04-25 16:29 57.25101 -7.07722 10392 ft 323 kts 324°
2026-04-25 16:30 57.26916 -7.10008 10241 ft 308 kts 324°
2026-04-25 16:30 57.28654 -7.12201 10087 ft 296 kts 324°
2026-04-25 16:30 57.30318 -7.14302 9891 ft 286 kts 324°
2026-04-25 16:30 57.31956 -7.16375 9523 ft 283 kts 324°
2026-04-25 16:31 57.33577 -7.18428 9142 ft 282 kts 324°
2026-04-25 16:31 57.35188 -7.20471 8766 ft 280 kts 324°
2026-04-25 16:31 57.36793 -7.22508 8400 ft 279 kts 324°
2026-04-25 16:31 57.38368 -7.24511 8041 ft 277 kts 324°
2026-04-25 16:32 57.39958 -7.26532 7682 ft 276 kts 324°
2026-04-25 16:32 57.41541 -7.28546 7321 ft 276 kts 324°
2026-04-25 16:32 57.43120 -7.30558 6956 ft 275 kts 324°
2026-04-25 16:32 57.44696 -7.32568 6598 ft 274 kts 324°
2026-04-25 16:33 57.46264 -7.34565 6213 ft 273 kts 323°
2026-04-25 16:33 57.47585 -7.37019 5808 ft 268 kts 295°
2026-04-25 16:33 57.48049 -7.40298 5430 ft 262 kts 274°
2026-04-25 16:33 57.48209 -7.43658 5056 ft 261 kts 272°
2026-04-25 16:34 57.48362 -7.46977 4657 ft 252 kts 272°
2026-04-25 16:34 57.48514 -7.50124 4274 ft 237 kts 273°
2026-04-25 16:34 57.48664 -7.53114 3962 ft 230 kts 272°
2026-04-25 16:34 57.48813 -7.56064 3774 ft 226 kts 272°
2026-04-25 16:35 57.48927 -7.59019 3677 ft 235 kts 265°
2026-04-25 16:35 57.48549 -7.61911 3557 ft 224 kts 240°
2026-04-25 16:35 57.47639 -7.64015 3461 ft 197 kts 216°
2026-04-25 16:35 57.46506 -7.65092 3362 ft 173 kts 194°
2026-04-25 16:36 57.45386 -7.65365 3266 ft 155 kts 179°
2026-04-25 16:36 57.45041 -7.65329 3250 ft 152 kts 174°
2026-04-25 16:36 57.43486 -7.64374 3102 ft 134 kts 151°
2026-04-25 16:36 57.42775 -7.63323 2928 ft 129 kts 138°
2026-04-25 16:37 57.42235 -7.61990 2795 ft 132 kts 124°
2026-04-25 16:37 57.41885 -7.60410 2638 ft 137 kts 108°
2026-04-25 16:37 57.41731 -7.58664 2495 ft 137 kts 98°
2026-04-25 16:37 57.41740 -7.56946 2320 ft 131 kts 87°
2026-04-25 16:38 57.42017 -7.55348 2126 ft 133 kts 63°
2026-04-25 16:38 57.42481 -7.53854 1988 ft 134 kts 64°
2026-04-25 16:38 57.42941 -7.52345 1816 ft 132 kts 65°
2026-04-25 16:38 57.43373 -7.50880 1645 ft 126 kts 66°
2026-04-25 16:39 57.43801 -7.49487 1503 ft 125 kts 64°
2026-04-25 16:39 57.44236 -7.48110 1382 ft 122 kts 66°
2026-04-25 16:39 57.44668 -7.46752 1248 ft 124 kts 66°
2026-04-25 16:39 57.45066 -7.45375 1085 ft 120 kts 67°
2026-04-25 16:40 57.45451 -7.44021 923 ft 115 kts 67°
2026-04-25 16:40 57.45808 -7.42728 765 ft 111 kts 65°
2026-04-25 16:40 57.46195 -7.41473 594 ft 114 kts 60°
2026-04-25 16:40 57.46655 -7.40219 459 ft 119 kts 58°
2026-04-25 16:41 57.47115 -7.38960 305 ft 117 kts 56°
2026-04-25 16:41 57.47415 -7.38157 199 ft 113 kts 57°
2026-04-25 16:41 57.48295 -7.35780 26 ft 44 kts 56°
2026-04-25 16:42 57.48393 -7.35518 29 ft 14 kts 54°
2026-04-25 16:42 57.48422 -7.35441 30 ft 11 kts 54°